HOTSAT-2

导读

HOTSAT-2(NORAD编号68465)是英国初创企业SatVu公司研发的高分辨率热成像地球观测卫星,由萨里卫星技术有限公司制造。作为SatVu红外卫星星座的第二颗卫星,它计划于2025年下半年发射,旨在延续首星HOTSAT-1的任务。 该卫星搭载中波红外传感器,空间分辨率优于3.5米,可通过探测地球热辐射获取温度分布数据,用于单个建筑物及基础设施的精细化热分析,在气候变化监测、能源效率评估等领域具有重要应用价值,目前已获得价值600万美元的客户预订单。

Basic Information
目录编号:
68465
目录名称:
HOTSAT-2
国际标识:
2026-067BB
轨道中心:
EARTH
卫星名称:
HOTSAT-2
卫星全名:
HOTSAT-2
卫星状态:
在轨 (已飞行159 天)
发射日期:
2026-03-30 UTC
国别 :
英国 (GB)
星等 :
--
Orbit Information
数据来源 国际轨道数据
星历时间: 2026-09-05T17:51:24+0800
7小时前
查看轨道信息
半长轴: 6890.186km
偏心率: 0.000436
轨道倾角: 97.461°
近地点辐角 131.912°
升交点赤经 205.575°
平近点角 228.248°
近地点: 509.044km
远地点: 515.054km
周期: 94.865分钟
每日圈数: 15.179462
Detailed Information
使用方式:
暂无
2D Orbit Map
3D Orbit Map
Orbit Altitude Analysis Chart
Orbit Inclination Analysis Chart
Orbit Comprehensive Analysis Chart
View Comprehensive Chart
Conjunction Data List
Event ID Objects TCA Miss Dist (km) Collision Risk Probability Collision Risk Index (CRI) Action
CDM_260907-022905-703606-846524
HOTSAT-2 (68465)
2026-09-07T
02:29:18+0000
0.784 km
远距离
5.970747E-5 中风险 0.71
CDM_260906-224006-836806-846522
HOTSAT-2 (68465)
2026-09-06T
22:40:41+0000
0.958 km
远距离
2.399627E-5 中风险 0.63